Location: Chervonnoye
(48.6000°N, 34.4000°E)
Time: 20:15:47
(UTC+00:00)

RS-44 - Pass Details

Date: 06 December 2021
Orbit: 1175 x 1510 km, 82.5° (Epoch: 19 January)

Event Time Altitude Azimuth Distance (km) Brightness Sun altitude
Rises 18:58:55 0° 243° (WSW) 4,076 ? -49.9°
Reaches altitude 10° 19:02:36 10° 261° (W) 3,100 ? -50.4°
Enters shadow 19:06:01 18° 289° (WNW) 2,560 ? -50.9°
Exits shadow 19:13:31 - 353° (N) 3,435 ? -52.0°
Sets 19:16:01 0° 4° (N) 4,126 ? -52.4°
